Lexington Weather

Lexington, Massachusetts, USA

42°F
11/27/2020 3:44am 
  • Lexington Conditions: Fog, Overcast
  • Temperature: 42.1°F / 5.6°CWarmer 2.5°F than last hour.
  • Dew Point: 41.4°FIncreased 2.6°Fsince last hour.
  • Relative Humidity: 97
  • Wind: Calm, 10-min avg: Calm, gust: None
  • Barometer: 29.97 in Steady
  • Visibility: ½ mile
  • Rain Today: 0.00 in
  •   
Southeast Middlesex County - Special Weather Statement - Special Weather Statement
 - SEE ALL NEARBY ALERTS -

Regional Weather Roundup
for Boston / Norton, MA

        
000
ASUS41 KBOX 250504
RWRBOX

REGIONAL WEATHER ROUNDUP
NATIONAL WEATHER SERVICE BOSTON/NORTON MA
1200 AM EST WED NOV 25 2020

NOTE:  "FAIR" INDICATES FEW OR NO CLOUDS BELOW 12,000 FEET WITH NO 
SIGNIFICANT WEATHER AND/OR OBSTRUCTIONS TO VISIBILITY.

MAZALL-250600-
EASTERN MASSACHUSETTS
  
CITY           SKY/WX    TMP DP  RH WIND       PRES   REMARKS
BOSTON         PTCLDY    29  13  51 N7        30.49S WCI  22          
BEVERLY        CLEAR     27  15  61 N5        30.48R WCI  22          
LAWRENCE       CLEAR     26  14  60 N3        30.50S                  
BEDFORD        CLEAR     24  16  71 CALM      30.47R                  
BLUE HILL        N/A     27  12  53 N9        30.43R WCI  18          
NORWOOD        CLEAR     27  20  75 N3        30.48S                  
MARSHFIELD     CLEAR     30  23  74 W5        30.47R WCI  25          
PLYMOUTH       CLEAR     25  21  85 CALM      30.46R                  
TAUNTON        CLEAR     23  19  85 CALM      30.47S                  
NEW BEDFORD    CLEAR     28  23  81 N5        30.46S WCI  23          
$$

MAZALL-250600-
CAPE COD AND THE ISLANDS
  
CITY           SKY/WX    TMP DP  RH WIND       PRES   REMARKS
FALMOUTH       CLEAR     25  23  93 CALM      30.47R                  
HYANNIS        CLEAR     29  23  78 CALM      30.46R                  
CHATHAM        CLEAR     32  19  58 NW3       30.47R                  
PROVINCETOWN   CLEAR     36  21  54 NE5       30.47R                  
NANTUCKET      CLEAR     36  24  62 NE5       30.46R                  
MARTHAS VNYRD  CLEAR     22  18  85 N5        30.46R WCI  16          
$$
 
MAZALL-250600-
CENTRAL AND WESTERN MASSACHUSETTS
  
CITY           SKY/WX    TMP DP  RH WIND       PRES   REMARKS
WORCESTER      CLEAR     27  14  58 NE3       30.42R                  
FITCHBURG      CLEAR     25  18  74 CALM      30.48R                  
ORANGE         CLEAR     26  23  88 CALM      30.44S                  
SPRINGFIELD    CLOUDY    28  24  82 CALM      30.42F                  
WESTFIELD      PTCLDY    31  22  69 N6        30.43F WCI  25          
NORTH ADAMS    PTCLDY    30  23  75 SE3       30.39F                  
PITTSFIELD     PTCLDY    28  23  81 CALM      30.35F                  
$$
 
RIZALL-250600-
RHODE ISLAND
  
CITY           SKY/WX    TMP DP  RH WIND       PRES   REMARKS
PROVIDENCE     PTCLDY    30  20  66 N5        30.48R WCI  25          
NEWPORT        CLEAR     34  21  59 E7        30.45S WCI  28          
BLOCK ISLAND   CLEAR     40  24  53 NE6       30.45S                  
SMITHFIELD     CLEAR     27  19  72 NE6       30.46R WCI  20          
WESTERLY       CLEAR     30  21  69 N5        30.45S WCI  25          
$$
 
CTZALL-250600-
CONNECTICUT
  
CITY           SKY/WX    TMP DP  RH WIND       PRES   REMARKS
BRADLEY INTL   CLOUDY    31  23  72 CALM      30.43F                  
HARTFORD       PTCLDY    33  24  69 CALM      30.44R                  
BRIDGEPORT     PTCLDY    40  24  53 NE8       30.43F                  
DANBURY        PTCLDY    33  27  78 CALM      30.42S                  
GROTON         PTCLDY    33  23  66 N6        30.45R WCI  28          
NEW HAVEN      PTCLDY    37  28  70 CALM      30.44R                  
CHESTER        FAIR      34  21  60 CALM      30.43R                  
MERIDEN        PTCLDY    33  25  72 CALM      30.44R                  
WILLIMANTIC    CLEAR     28  23  81 NE3       30.46R                  
OXFORD         PTCLDY    35  21  56 E5        30.42R WCI  31          
$$

MEZ002-015-021-024-NHZ003-005-008-011-012-014-VTZ005-008-250600-
NORTHERN NEW ENGLAND
  
CITY           SKY/WX    TMP DP  RH WIND       PRES   REMARKS
PORTLAND ME    CLEAR     23  12  62 N5        30.51R WCI  17          
BANGOR ME      PTCLDY    18  10  71 NW5       30.48F WCI  11          
CONCORD NH     CLEAR     20  12  71 CALM      30.48R                  
MANCHESTER NH  PTCLDY    26  13  57 NE3       30.46S                  
NASHUA NH      CLEAR     23  16  74 CALM      30.49S                  
PORTSMOUTH NH  PTCLDY    26  11  54 N5        30.49R WCI  20          
JAFFREY NH     CLEAR     24  15  68 CALM      30.42S                  
KEENE NH       CLEAR     25  22  88 CALM      30.45S                  
BURLINGTON VT  CLEAR     24  13  62 SE7       30.42S WCI  16          
MT. WASHINGTON CLOUDY    18 -26  13 SW18        N/A  WCI   2          
$$

NYZ052-076-250600-
EASTERN NEW YORK
  
CITY           SKY/WX    TMP DP  RH WIND       PRES   REMARKS
ALBANY         CLOUDY    26  16  65 NW6       30.42F WCI  19          
NEW YORK CITY  CLOUDY    46  27  47 E8        30.40F                  
$$
 
ANZALL-250600-
MARINE OBSERVATIONS
  
STATION/POSITION TIME  TEMP    WIND        PRES    VSBY  WAVE
                       AIR SEA DIR/SP/G                  HT/PER
                 (UTC) (F)     (DEG/KT/KT) (MB)    (MI)  (FT/S)
BOSTON BUOY      0440   37 50   40/  8/ 14 1032.1R
BUZZARDS BAY     0400           40/ 13/ 14 1032.0R
NANTUCKET SOUND  0440      51   30/ 14/ 16   N/A
MASS BAY-STELLWA NOT AVBL
ISLE OF SHOALS   0400   33      40/  8/ 10 1031.4R
S OF BLOCK IS    0426      57                N/A           2/ 9
$$

......................KEY.........................
  SKY/WX - SKY CONDITION/PRESENT WEATHER
  TMP    - TEMPERATURE IN FAHRENHEIT
  DWPT   - DEWPOINT IN FAHRENHEIT
  RH     - RELATIVE HUMIDITY IN PERCENT
  WIND   - DIRECTION AND SPEED IN MPH
  PRES   - MEAN SEA LEVEL PRESSURE IN INCHES OF HG
  WCI    - WIND CHILL INDEX
  VSB    - VISIBILITY IN MILES
  HX     - HEAT INDEX
  TC     - TEMPERATURE IN CELSIUS
  VRB    - VARIABLE WIND DIRECTION
  N/A    - NOT AVAILABLE
  
      

Other recent Regional Weather Roundups

Fri Nov 27, 12:04am

Thu Nov 26, 11:04pm

Thu Nov 26, 10:04pm

Thu Nov 26, 9:04pm

Thu Nov 26, 8:04pm

Thu Nov 26, 7:04pm

Thu Nov 26, 6:04pm

Thu Nov 26, 5:04pm

Thu Nov 26, 4:04pm

Thu Nov 26, 2:04pm

Thu Nov 26, 1:04pm

Thu Nov 26, 12:04pm

Thu Nov 26, 11:04am

Thu Nov 26, 10:04am

Thu Nov 26, 9:04am

Thu Nov 26, 8:04am

Thu Nov 26, 7:04am

Thu Nov 26, 6:04am

Thu Nov 26, 5:04am

Thu Nov 26, 4:04am

Thu Nov 26, 3:04am

Thu Nov 26, 2:04am

Thu Nov 26, 1:04am

Thu Nov 26, 12:04am

Wed Nov 25, 11:04pm

Wed Nov 25, 10:04pm

Wed Nov 25, 9:04pm

Wed Nov 25, 8:04pm

Wed Nov 25, 7:04pm

Wed Nov 25, 6:04pm

Wed Nov 25, 5:04pm

Wed Nov 25, 4:04pm

Wed Nov 25, 3:05pm

Wed Nov 25, 2:04pm

Wed Nov 25, 1:04pm

Wed Nov 25, 12:05pm

Wed Nov 25, 11:04am

Wed Nov 25, 10:04am

Wed Nov 25, 9:04am

Wed Nov 25, 8:04am

Wed Nov 25, 7:04am

Wed Nov 25, 6:04am

Wed Nov 25, 5:04am

Wed Nov 25, 4:04am

Wed Nov 25, 3:04am

Wed Nov 25, 2:04am

Wed Nov 25, 1:04am

Tue Nov 24, 11:04pm

Tue Nov 24, 10:04pm

Tue Nov 24, 9:04pm

Tue Nov 24, 8:04pm

Tue Nov 24, 7:04pm

Tue Nov 24, 6:04pm

Tue Nov 24, 5:04pm

Tue Nov 24, 4:05pm

Tue Nov 24, 3:05pm

Tue Nov 24, 2:05pm

Tue Nov 24, 1:05pm

Tue Nov 24, 12:04pm

Tue Nov 24, 11:04am

Tue Nov 24, 10:04am

Tue Nov 24, 9:04am

Tue Nov 24, 8:04am

Tue Nov 24, 7:04am

Tue Nov 24, 6:04am

Tue Nov 24, 5:04am

Tue Nov 24, 4:05am

Tue Nov 24, 3:04am

Tue Nov 24, 2:04am

Tue Nov 24, 1:04am

Tue Nov 24, 12:05am

Mon Nov 23, 11:04pm

Mon Nov 23, 10:04pm

Mon Nov 23, 9:04pm

Mon Nov 23, 8:04pm

Mon Nov 23, 7:04pm

Mon Nov 23, 6:04pm

Mon Nov 23, 5:04pm

Mon Nov 23, 4:04pm

Mon Nov 23, 3:04pm

Mon Nov 23, 2:04pm

Mon Nov 23, 1:04pm

Mon Nov 23, 12:04pm

Mon Nov 23, 11:04am

Mon Nov 23, 10:04am

Mon Nov 23, 9:04am

Mon Nov 23, 8:05am

Mon Nov 23, 7:04am

Mon Nov 23, 6:04am

Mon Nov 23, 5:04am

Mon Nov 23, 4:04am

Mon Nov 23, 3:04am

Mon Nov 23, 2:04am

Mon Nov 23, 1:04am

Mon Nov 23, 12:05am

Sun Nov 22, 11:04pm

Sun Nov 22, 10:04pm

Sun Nov 22, 9:04pm

Sun Nov 22, 8:05pm

Sun Nov 22, 7:04pm

Sun Nov 22, 6:04pm

Sun Nov 22, 5:04pm

Sun Nov 22, 4:04pm

Sun Nov 22, 3:04pm

Sun Nov 22, 2:04pm

Sun Nov 22, 1:05pm

Sun Nov 22, 12:04pm

Sun Nov 22, 11:04am

Sun Nov 22, 10:05am

Sun Nov 22, 9:04am

Sun Nov 22, 8:04am

Sun Nov 22, 7:04am

Sun Nov 22, 6:04am

Sun Nov 22, 5:04am

Sun Nov 22, 4:04am

Sun Nov 22, 3:04am

Sun Nov 22, 2:04am

Sun Nov 22, 1:04am

Sun Nov 22, 12:04am

Sat Nov 21, 11:04pm

Sat Nov 21, 10:04pm

Sat Nov 21, 9:04pm

Sat Nov 21, 8:05pm

Sat Nov 21, 7:04pm

Sat Nov 21, 6:04pm

Sat Nov 21, 5:04pm

Sat Nov 21, 4:05pm

Sat Nov 21, 3:04pm

Sat Nov 21, 2:04pm

Sat Nov 21, 1:05pm

Sat Nov 21, 12:04pm

Sat Nov 21, 11:04am

Sat Nov 21, 10:04am

Sat Nov 21, 9:04am

Sat Nov 21, 8:04am

Sat Nov 21, 7:04am

Sat Nov 21, 6:04am

Sat Nov 21, 5:04am

Sat Nov 21, 4:04am

Sat Nov 21, 3:04am

Sat Nov 21, 2:04am

Sat Nov 21, 1:04am

Sat Nov 21, 12:04am

Fri Nov 20, 11:04pm

Fri Nov 20, 10:04pm

Fri Nov 20, 9:04pm

Fri Nov 20, 8:04pm

Fri Nov 20, 7:04pm

Fri Nov 20, 6:04pm

Fri Nov 20, 5:04pm

Fri Nov 20, 4:05pm

Fri Nov 20, 3:05pm

Fri Nov 20, 2:04pm

Fri Nov 20, 1:04pm

Fri Nov 20, 12:04pm

Fri Nov 20, 11:04am

Fri Nov 20, 10:04am

Fri Nov 20, 9:04am

Fri Nov 20, 8:04am

Fri Nov 20, 7:04am

Fri Nov 20, 6:04am

Fri Nov 20, 5:04am

Fri Nov 20, 4:04am

Meta data:

ID: d5362277-9a72-4713-b9c1-018f28cdc787
Link: https://api.weather.gov/products/d5362277-9a72-4713-b9c1-018f28cdc787